Dewpoint
72 73 73 72 73 74 72 74 73 72 71 71 71 72 72 72 70 70 71 70 70 70 71 72 72 72 71 71 68 71 73 72 72 73 74 74 74 73 72 73 74 74 75 73 70 70 72 72 73 73 73 72 71 70 69 69 72 71 72 72 71 72 72 72 70 70 72 71 69 68 67 68 67 69 69 67 69 71 72 72 73 71 71 70 70
72 73 73 72 72 72 73 73 73 72 71 71 72 72 71 71 71 72 69 71 71 69 71 70 71 72 70 71 71 69 72 73 70 71 73 74 74 71 72 73 74 74 74 74 74 72 72 73 73 72 73 73 71 70 69 67 68 69 71 71 71 72 73 72 71 71 71 72 70 71 70 70 69 72 71 70 70 72 70 71 70 72 73 73 72
70 73 72 72 72 73 72 73 73 71 70 70 69 69 71 72 72 71 69 68 71 71 71 71 72 73 72 71 72 71 73 72 71 71 72 73 74 72 70 71 72 73 73 74 74 74 72 73 72 73 71 71 72 71 70 70 69 69 69 70 71 71 72 73 72 71 71 71 72 69 69 69 70 71 72 71 74 73 74 73 70 70 70 70 71
69 72 71 71 71 72 72 72 71 70 69 68 69 68 68 70 71 71 70 67 68 71 71 72 73 74 73 73 72 72 72 72 72 72 71 72 73 74 73 71 71 72 73 72 72 73 72 73 71 71 71 71 72 72 71 71 70 71 70 70 72 71 73 73 73 73 73 72 73 72 72 71 71 72 71 72 70 72 72 74 73 72 72 72 72
68 70 70 69 69 71 70 70 70 70 69 67 67 67 67 67 70 70 70 69 68 70 72 73 74 74 73 73 73 73 72 73 73 72 71 71 72 72 73 73 72 73 73 73 73 73 73 72 71 72 72 71 71 71 71 72 71 71 71 72 72 72 72 73 74 74 74 73 72 74 74 74 74 74 75 73 73 74 75 75 73 73 74 72 72
67 69 69 69 70 70 70 68 69 69 68 67 66 67 67 67 68 70 70 69 68 67 72 72 73 74 75 74 74 74 74 74 74 73 70 70 71 72 72 72 72 73 73 72 73 73 72 73 72 72 71 71 70 71 73 72 72 72 73 73 73 73 74 74 75 74 74 73 73 72 74 72 73 74 75 74 72 72 73 73 74 74 75 73 71
68 69 69 68 69 69 69 68 69 69 69 67 67 67 67 66 66 68 69 69 68 66 69 73 73 74 75 75 74 75 75 74 76 75 73 71 71 72 71 71 72 72 73 72 71 72 72 72 72 72 72 72 71 71 72 73 72 73 74 75 74 74 74 74 74 73 73 72 72 72 72 72 73 72 73 74 74 72 71 71 72 73 75 74 74
68 69 70 69 70 68 69 69 70 70 70 71 70 67 67 67 67 67 70 70 68 67 66 71 72 73 74 75 75 75 75 75 76 76 75 73 71 71 72 71 70 71 71 71 71 69 70 70 69 70 71 72 72 73 73 72 73 73 74 75 75 75 74 73 73 73 73 72 71 71 71 73 73 72 72 73 73 73 72 71 71 72 74 76 75
68 68 70 70 71 71 72 70 70 71 71 73 72 70 70 70 69 69 71 71 69 68 67 67 71 72 72 74 74 74 74 74 74 75 76 75 73 70 72 72 71 70 71 70 70 70 69 67 67 67 72 76 75 75 74 76 72 73 75 75 76 75 75 74 73 73 73 72 72 72 71 72 72 72 70 70 71 71 72 71 72 73 73 73 76
68 68 69 70 71 72 74 74 73 73 73 74 74 72 70 71 70 71 70 71 72 71 70 69 68 71 71 73 73 73 73 73 73 69 71 75 74 71 71 73 73 71 71 71 69 69 69 67 65 73 75 78 78 75 73 74 74 74 73 74 74 75 75 75 74 73 73 72 71 71 70 70 69 71 70 70 71 72 71 73 72 73 74 74 75
68 68 70 71 72 74 75 74 74 75 75 75 75 74 74 71 72 73 72 72 74 75 72 68 67 68 70 71 71 71 71 70 68 66 67 69 74 74 72 73 74 74 72 72 72 69 68 69 70 71 77 77 77 74 73 71 70 70 70 71 73 75 73 73 73 74 73 72 71 71 70 71 71 71 71 70 70 71 72 74 73 73 74 73 72
68 70 70 72 74 74 74 75 75 75 75 75 75 75 74 73 74 73 71 71 74 73 71 70 71 68 69 70 70 70 71 68 64 65 65 66 70 75 72 71 71 73 73 72 71 71 70 67 66 67 68 71 71 76 74 69 68 68 68 68 68 68 69 73 73 72 72 71 71 71 71 71 72 73 71 70 73 73 74 74 75 74 74 74 74
69 71 70 72 74 75 75 75 75 75 76 76 76 75 75 74 73 72 71 73 73 74 74 72 72 71 69 71 70 70 70 66 63 63 64 65 65 71 72 72 71 70 72 73 72 72 72 71 68 67 65 76 74 72 76 77 68 65 66 67 67 66 65 65 66 73 73 72 72 72 73 73 73 73 73 74 76 74 74 73 75 75 75 74 74
70 70 72 74 75 75 75 75 75 76 76 76 76 76 75 74 73 72 72 73 74 74 73 73 73 74 72 72 73 70 70 65 62 62 63 63 64 67 75 74 72 71 71 72 72 72 73 73 72 70 70 72 73 73 74 75 77 76 74 74 74 73 67 64 64 64 68 72 73 73 74 75 74 74 76 76 75 75 74 74 75 74 74 74 75
71 71 72 74 75 75 75 75 76 76 77 76 77 76 75 75 74 73 72 72 74 75 74 73 73 73 72 71 71 71 68 63 61 61 61 61 63 65 75 74 74 73 73 73 74 73 74 74 74 73 74 74 74 74 74 75 76 76 77 76 76 76 77 74 72 71 70 70 72 74 75 75 76 76 76 76 76 78 76 75 75 75 75 75 75
70 72 72 73 74 75 75 75 76 77 77 77 76 76 76 76 76 75 73 71 73 74 74 73 73 73 73 72 70 71 70 61 60 60 60 61 62 71 74 74 74 73 74 74 75 76 75 75 76 76 76 76 75 72 74 76 76 76 76 76 76 75 73 74 69 70 74 74 74 73 73 73 71 76 78 75 75 76 74 74 74 75 74 73 72
70 72 73 73 73 74 75 75 76 77 77 76 76 76 76 76 76 75 74 72 71 72 74 72 74 73 74 74 72 71 71 65 59 59 59 59 63 73 74 74 74 74 74 74 74 75 75 76 76 75 75 77 74 67 67 74 75 74 74 74 73 72 72 73 69 64 65 65 66 67 66 66 64 61 61 62 69 72 74 73 73 72 72 71 70
70 72 72 72 74 75 75 75 76 76 77 76 76 76 75 76 75 75 73 71 69 71 73 73 72 73 73 73 72 71 70 69 57 58 58 58 65 74 74 73 74 75 75 75 75 76 76 76 77 76 76 76 70 65 64 72 76 75 75 74 73 73 73 72 70 71 63 62 62 62 62 62 62 61 62 62 62 65 73 73 73 72 71 70 66
70 72 72 73 75 75 75 76 76 76 77 76 75 75 75 76 75 75 73 71 70 71 72 72 72 72 70 72 73 72 70 66 57 57 57 57 66 75 75 74 74 74 74 75 75 75 76 76 76 74 75 75 68 63 62 72 76 76 75 74 73 72 72 72 72 71 73 75 76 75 75 70 74 76 76 67 64 67 72 73 73 73 70 67 67
71 73 73 73 75 76 75 77 76 76 77 77 76 76 76 75 75 74 73 72 70 68 69 71 71 71 70 70 71 72 71 72 66 55 56 56 60 75 75 74 73 74 74 74 75 75 75 75 76 65 64 65 65 60 59 63 75 76 75 73 73 72 72 72 74 75 75 74 75 75 75 77 76 76 78 77 77 76 75 74 74 73 71 68 67
72 74 74 73 74 75 76 76 76 76 77 76 75 75 75 74 74 74 72 70 70 70 68 69 69 70 69 70 69 71 71 72 69 54 55 55 57 64 74 75 75 74 75 75 74 73 74 75 74 68 62 61 61 59 57 57 66 76 75 75 74 79 73 74 74 75 74 75 75 75 75 75 75 75 74 74 71 67 70 75 74 72 69 64 63
72 74 74 73 73 75 75 76 76 76 77 76 76 75 75 74 74 74 72 72 73 72 72 70 68 69 69 69 71 71 72 70 75 56 55 54 56 58 72 74 74 74 74 75 74 73 73 73 75 70 60 60 59 59 58 57 58 72 75 66 65 65 75 74 74 73 73 73 73 73 73 74 74 74 73 70 67 68 67 66 63 63 62 64 66
73 74 75 73 74 75 75 76 76 76 76 76 75 75 75 74 74 75 75 74 74 72 74 72 71 69 70 70 71 72 74 75 68 65 55 54 54 55 61 68 66 76 73 74 74 74 74 74 75 72 58 57 57 57 57 56 59 67 62 61 62 63 69 72 73 73 73 73 74 74 75 74 73 73 71 68 67 69 65 65 64 64 68 68 67
74 74 74 74 74 74 75 75 76 76 76 76 75 75 75 75 75 75 75 74 73 73 73 73 73 71 69 69 69 70 74 74 68 63 61 54 54 54 56 60 64 72 74 73 74 73 75 74 76 60 55 53 54 55 56 57 65 60 57 59 62 65 70 72 72 74 73 73 74 74 74 73 74 72 69 70 67 69 68 68 69 68 68 67 68
74 74 73 73 74 75 75 76 75 75 75 75 75 74 75 75 74 75 76 74 74 73 73 73 73 72 70 70 70 70 72 74 76 68 60 55 54 54 55 57 58 61 74 73 74 73 62 50 50 53 53 52 53 54 53 55 56 58 57 59 67 70 72 73 73 75 75 74 73 73 73 74 73 69 71 71 70 70 71 69 68 67 67 68 68
75 75 75 74 74 75 75 74 75 75 75 75 76 75 75 74 74 74 74 74 74 74 73 72 72 73 72 71 71 71 73 73 75 75 64 59 57 54 55 56 58 58 65 74 61 58 53 55 53 53 54 57 68 72 73 71 57 59 60 64 71 72 73 74 74 74 73 73 72 72 73 70 67 69 69 70 70 69 68 67 65 64 66 65 64
75 75 75 74 75 75 75 74 74 75 76 75 75 75 74 74 74 74 74 73 73 72 73 72 72 71 71 72 72 73 73 73 73 75 73 69 66 63 60 61 58 60 64 70 67 66 68 66 70 67 67 65 67 66 65 62 65 66 67 70 73 73 73 74 74 74 73 73 73 71 66 66 68 68 70 68 68 67 66 65 63 63 64 64 64
75 75 74 74 74 74 74 76 75 73 74 73 73 73 73 73 72 73 73 72 72 72 71 71 71 71 71 71 73 73 72 73 74 74 75 72 71 69 66 66 67 66 67 70 72 72 72 64 66 74 74 73 73 72 72 73 72 71 72 72 72 72 70 71 71 73 72 71 69 68 67 68 67 66 63 62 63 63 65 64 64 65 64 64 64
75 75 73 73 72 74 73 74 73 73 73 74 75 80 79 73 72 73 73 73 72 72 72 71 72 72 72 73 74 74 74 74 75 68 79 68 73 73 71 70 70 70 67 64 72 73 73 73 72 72 72 71 71 71 71 72 72 72 73 73 73 72 72 71 71 71 70 69 68 68 67 66 65 63 61 62 64 62 65 65 66 65 65 64 62
76 75 74 73 73 73 73 72 73 72 72 72 71 64 51 44 51 74 73 62 53 50 64 77 78 74 75 74 76 75 75 78 57 64 61 61 61 62 63 62 62 68 64 60 69 72 72 72 71 71 71 71 70 70 70 71 71 72 72 66 70 71 70 69 68 67 70 68 68 64 66 62 61 62 60 59 62 61 64 61 64 64 63 61 59
74 73 74 73 72 73 72 73 74 74 74 74 72 71 70 66 45 42 50 52 47 43 42 43 49 57 77 76 66 49 53 52 52 54 55 57 57 57 57 57 57 59 57 67 70 72 72 71 71 71 70 71 71 71 70 71 71 71 71 69 70 68 66 65 65 66 64 64 64 64 62 61 61 60 59 59 60 60 62 63 62 63 60 59 58
73 72 72 72 75 76 73 74 74 74 74 75 75 74 73 72 69 50 43 45 44 42 42 42 42 46 61 70 70 70 54 48 48 49 50 50 51 52 54 54 54 54 53 59 70 71 72 72 71 71 71 71 71 70 71 71 70 70 69 67 66 64 63 64 66 65 64 65 63 61 61 61 60 59 58 59 58 60 61 60 60 59 59 58 58
70 70 71 72 72 75 72 73 74 74 74 75 76 75 74 73 72 70 64 46 43 44 43 43 42 42 45 48 58 63 59 49 46 47 48 48 47 49 50 50 51 49 52 67 71 72 72 72 71 71 71 71 72 72 71 71 70 69 69 66 63 64 65 67 65 68 64 63 61 60 60 60 59 58 58 60 59 59 59 59 59 58 58 57 57
71 71 72 73 74 75 75 74 73 75 74 75 76 75 74 74 73 73 70 70 68 58 47 43 42 46 42 43 45 46 44 45 45 45 45 46 46 47 51 57 48 49 61 71 71 72 72 72 72 73 73 72 70 70 70 70 69 68 66 64 65 66 68 68 67 64 62 57 59 60 59 59 59 59 59 59 59 58 58 58 59 57 57 57 56
76 77 78 76 76 76 75 77 76 76 76 76 75 74 74 75 73 73 72 72 72 73 71 65 50 41 54 50 42 43 44 44 45 45 45 46 48 50 55 70 70 69 71 72 73 73 73 72 71 71 71 70 68 67 67 67 66 67 66 66 66 67 65 65 64 65 62 61 60 60 60 58 60 58 56 58 58 57 58 57 57 57 56 56 55
74 74 75 75 75 75 75 75 75 75 75 75 75 73 72 73 72 72 71 72 72 73 66 63 59 50 45 42 41 42 43 44 44 45 47 48 50 57 72 71 71 70 70 72 71 70 70 70 69 69 68 68 68 67 67 66 66 69 65 65 64 64 64 63 63 63 64 63 61 60 54 60 60 59 57 57 59 58 57 56 57 57 56 55 54
70 71 73 75 74 73 73 74 75 75 71 71 73 72 72 70 70 71 72 71 70 68 66 63 62 61 57 56 49 43 44 45 46 46 48 50 50 68 71 70 70 70 69 70 68 67 68 68 69 68 67 67 66 66 65 64 65 66 62 66 66 64 64 64 63 63 62 61 62 62 60 60 60 59 58 57 56 57 57 56 55 56 56 55 54
68 68 68 71 74 74 75 74 74 70 73 71 73 73 70 71 71 70 69 69 68 67 66 66 63 64 62 60 60 59 56 48 48 51 52 53 62 69 68 68 67 66 66 68 70 66 65 66 68 66 65 65 64 63 63 63 62 63 63 65 65 63 60 61 61 63 63 62 60 60 59 58 58 57 57 56 56 56 56 57 55 54 55 55 55
67 64 63 64 65 70 72 73 72 73 72 72 71 70 70 70 69 69 68 67 66 66 65 65 64 63 62 62 63 62 62 64 65 66 66 68 71 68 66 65 65 64 64 65 65 64 63 63 63 64 64 63 62 63 63 62 63 62 63 62 62 59 60 61 63 62 60 60 60 57 57 57 57 57 57 56 56 56 56 57 56 56 55 55 54
65 65 64 63 65 65 66 68 68 68 69 70 69 69 68 68 68 67 66 66 66 66 65 64 63 63 63 63 63 64 65 65 65 66 67 66 63 63 63 63 63 63 62 62 61 61 63 64 64 62 62 61 63 63 64 63 62 61 61 61 60 61 62 60 59 59 59 59 57 57 57 57 57 58 59 57 56 56 55 55 55 56 55 55 55
66 65 65 63 63 66 66 66 66 66 67 67 67 67 67 67 68 67 67 66 65 64 64 63 63 63 62 60 56 59 65 64 64 63 63 62 62 62 62 62 61 60 60 59 59 59 59 59 59 60 60 61 60 63 61 62 62 61 60 59 59 59 60 61 62 61 59 59 59 59 59 58 58 59 57 56 55 55 55 54 53 53 53 54 52
66 65 65 65 64 64 64 64 65 66 65 64 65 65 65 65 64 63 63 62 61 60 60 60 60 58 53 50 51 53 60 60 59 58 58 57 58 58 58 59 59 59 58 58 58 58 58 57 57 58 57 57 58 61 58 58 58 58 58 58 59 59 58 58 59 59 59 59 59 59 59 59 59 59 58 55 56 55 55 53 53 54 52 52 53
65 64 65 65 64 65 63 63 64 64 64 63 62 62 63 62 62 61 60 60 59 59 59 59 58 58 56 52 53 53 58 57 56 56 56 57 57 59 58 58 56 57 58 58 58 58 57 56 56 55 56 56 57 57 56 56 57 57 57 58 58 58 58 58 58 58 56 57 58 58 59 59 58 59 59 60 59 58 56 56 54 53 54 54 55
64 64 64 64 65 63 63 62 61 62 62 62 62 61 62 62 62 61 59 58 58 58 58 57 57 57 58 58 58 58 57 55 54 54 54 54 54 55 57 57 58 60 61 59 57 57 57 56 56 55 54 53 55 56 54 54 55 55 55 55 53 52 52 52 52 53 53 55 56 56 57 57 57 59 59 59 60 60 59 59 57 55 54 54 53
64 63 63 64 63 64 63 63 61 61 61 62 62 62 61 61 61 61 61 60 59 59 58 58 58 57 58 58 57 56 56 56 57 55 54 52 52 52 55 55 55 54 56 56 55 58 55 53 55 51 51 50 50 51 50 50 49 49 48 48 49 47 47 48 48 49 50 53 54 55 56 56 56 56 56 56 57 58 58 59 59 58 57 57 56
64 63 63 62 63 63 62 63 62 60 60 60 60 61 60 60 60 59 59 60 59 57 56 56 56 57 58 58 56 55 54 53 52 54 56 53 52 55 54 53 52 52 52 51 52 53 58 56 53 51 50 49 47 47 46 46 45 44 44 43 43 43 43 44 46 48 50 52 53 54 55 55 56 55 56 55 55 56 57 58 59 59 59 59 59
64 64 62 62 62 60 61 60 61 61 59 58 57 56 56 57 56 56 57 59 60 59 58 56 55 55 54 54 54 53 52 53 56 55 52 52 51 52 50 51 51 50 50 50 50 50 48 47 47 46 46 45 43 43 41 39 40 38 38 37 38 39 39 40 44 47 49 51 52 53 54 54 54 55 55 56 56 56 57 56 57 57 58 58 59
62 64 63 64 62 61 59 60 59 59 59 56 55 55 55 55 55 54 54 56 56 57 57 56 54 52 51 53 54 54 53 48 49 47 46 47 46 46 46 46 47 46 47 46 45 45 45 44 44 43 42 42 41 39 37 36 35 36 35 35 36 38 38 39 43 47 47 47 51 53 54 54 54 55 55 56 56 56 55 55 55 55 56 56 56
58 58 59 60 61 59 61 59 59 58 57 55 56 54 54 54 53 53 53 54 54 55 56 56 55 52 49 48 49 49 51 50 45 46 42 42 44 44 44 45 47 45 43 43 43 44 44 42 42 41 39 39 37 36 36 36 34 33 34 34 36 37 36 37 39 40 39 43 49 52 55 54 54 55 55 55 55 55 55 55 55 54 54 54 54
56 56 56 55 55 55 56 55 55 57 56 55 54 53 53 53 53 53 51 52 52 51 51 50 50 48 48 46 46 45 44 43 42 42 42 42 44 43 43 42 42 41 41 40 40 40 40 41 41 40 38 38 36 36 34 34 33 32 34 35 36 35 35 37 38 39 38 40 43 48 52 53 53 53 53 54 54 54 54 54 54 54 53 54 54
53 53 53 53 53 53 52 52 51 51 53 52 54 53 53 52 51 50 50 49 49 48 47 46 45 44 43 43 43 42 41 41 39 39 39 39 39 39 40 40 39 40 40 40 39 39 39 39 38 38 38 38 37 35 35 34 34 35 35 35 34 34 35 36 38 35 35 37 43 46 48 49 51 51 51 51 51 51 51 51 52 52 53 52 52